To NAV CANADA Home Page Login to a new session Search on AWWS site Feedback and Comments Disclaimer Vers la page française équivalente Tips FAQ What's new on the site To the Forecasts and Observations / NOTAM section To "File a Flight Plan" website Publications and other links Update of the User's profile FIC Telephone Numbers My Weather Data Folder Route Weather Data Regional Weather Data Local Weather Data To the Forecasts and Observations / NOTAM section
Request Generated 04/25/2014 at 02:23:54 UTC . Weather information available at that time is displayed.

METAR/TAF

KINDERSLEY/KINDERSLEY REGIONAL/SK    

METAR CYKY 250200Z 36008KT 15SM FEW032 05/01 A2971 RMK SC1 SLP082=
METAR CYKY 250100Z 35014KT 15SM FEW030 07/01 A2970 RMK SC1 SLP078=
METAR CYKY 250000Z 34013KT 15SM FEW030 08/00 A2969 RMK CU1 TCU TOPS
NE SLP074=

CYKY - No TAF is issued for this station

Your time UTC time
Weather data provided by Environment Canada and NAV CANADA